Location: London
(51.5074°N, 0.1278°W)
Time: 22:41:46
(UTC+01:00)

DELFI C3 - Pass Details

Date: 30 September 2020
Orbit: 535 x 549 km, 97.4° (Epoch: 22 October)

Event Time Altitude Azimuth Distance (km) Brightness Sun altitude
Exits shadow 21:35:40 18° 234° (SW) 1,358 ? -27.0°
Maximum altitude 21:37:12 23° 267° (W) 1,187 ? -27.2°
Drops below altitude 10° 21:40:23 10° 321° (NW) 1,827 ? -27.7°
Sets 21:42:53 0° 336° (NNW) 2,729 ? -28.0°
